Home   Weather   Camrose   Past weeks

Flag for Canada Past Weather in Camrose, Alberta, Canada — Yesterday and Last 2 Weeks

Now
39 °F

Mostly cloudy.


Feels Like: 39 °F
Forecast: 33 / 38 °F
Wind: No wind

Location: Edmonton International

Current Time: Jan 17, 2017 at 2:52:41 pm

Latest Report: Jan 17, 2017 at 2:00 pm


Visibility: 15 mi

Pressure: 29.41 "Hg (26.83 "Hg at 744m altitude)

Humidity: 75%

Dew Point: 32 °F

Location of CamroseLocation

Past Weather in Camrose — Graph

°F

Camrose Temperature Yesterday

Maximum temperature yesterday: 39 °F (at 10:00 pm)
Minimum temperature yesterday: 16 °F (at 12:00 am)
Average temperature yesterday: 27 °F

High & Low Weather Summary for the Past Weeks

 TemperatureHumidityPressure
High45 °F (Jan 17, 12:00 am)93% (Jan 4, 4:33 pm)30.66 "Hg (Jan 4, 4:33 pm)
Low-26 °F (Jan 10, 8:00 pm)57% (Jan 17, 12:00 am)29.41 "Hg (Jan 17, 12:00 pm)
Average6 °F76%30.17 "Hg
* Reported Jan 2 1:00 pm — Jan 17 1:00 pm, Camrose, Weather by CustomWeather, © 2017

Note: Actual official high and low records may vary slightly from our data, if they occured in-between our weather recording intervals... More about our weather records

Advertising

Camrose Weather History for the Previous 24 Hours

Scroll right to see more
 ConditionsComfort  
Time TempWeatherWind HumidityBarometerVisibility
1:00 pm
Tue, Jan 17
41 °FMostly cloudy.3 mph66%29.42 "Hg15 mi
12:00 pm36 °FPartly sunny.No wind75%29.41 "Hg15 mi
11:00 am37 °FPartly sunny.7 mph70%29.42 "Hg15 mi
10:00 am36 °FPartly sunny.5 mph81%29.43 "Hg15 mi
9:00 am34 °FBroken clouds.6 mph81%29.44 "Hg15 mi
8:00 am34 °FPartly cloudy.6 mph81%29.46 "Hg15 mi
7:00 am34 °FPassing clouds.8 mph81%29.46 "Hg15 mi
6:00 am34 °FPassing clouds.6 mph81%29.45 "Hg15 mi
5:02 am36 °FPassing clouds.3 mph81%29.44 "Hg15 mi
4:00 am36 °FPartly cloudy.6 mph81%29.43 "Hg15 mi
3:40 am36 °FPassing clouds.3 mph81%29.44 "Hg15 mi
3:00 am37 °FPartly cloudy.5 mph70%29.43 "Hg15 mi
2:00 am37 °FMostly cloudy.6 mph75%29.43 "Hg15 mi
1:00 am39 °FMostly cloudy.7 mph70%29.44 "Hg15 mi
12:00 am45 °FMostly cloudy.9 mph57%29.44 "Hg15 mi
11:00 pm
Mon, Jan 16
37 °FMostly cloudy.9 mph75%29.46 "Hg15 mi
10:00 pm39 °FMostly cloudy.10 mph65%29.49 "Hg15 mi
9:00 pm37 °FOvercast.12 mph65%29.52 "Hg15 mi
8:00 pm36 °FMostly cloudy.13 mph65%29.57 "Hg15 mi
7:00 pm34 °FMostly cloudy.15 mph65%29.63 "Hg15 mi
6:00 pm32 °FMostly cloudy.13 mph64%29.67 "Hg15 mi
5:00 pm32 °FPartly cloudy.13 mph64%29.71 "Hg15 mi
4:00 pm34 °FBroken clouds.14 mph60%29.75 "Hg15 mi
3:00 pm34 °FBroken clouds.14 mph65%29.77 "Hg15 mi
2:00 pm32 °FMostly cloudy.16 mph64%29.78 "Hg15 mi
Weather by CustomWeather, © 2017

See weather overviewHow to use our weather pages